Location: Rowland
(34.5359°N, 79.2929°W)
Time: 16:52:40
(UTC+00:00)

S-56A Canister/Altair - Pass Details

Date: 12 October 2022
Orbit: 638 x 2494 km, 38.9° (Epoch: 06 December)

Event Time Altitude Azimuth Distance (km) Brightness Sun altitude
Rises 04:13:35 0° 254° (WSW) 6,154 12.2 -60.5°
Reaches altitude 10° 04:17:38 10° 255° (WSW) 5,151 11.7 -60.8°
Enters shadow 04:18:31 13° 255° (WSW) 4,931 11.6 -60.9°
